Location: Reutlingen
(48.4911°N, 9.2587°E)
Time: 09:57:17
(UTC+01:00)

ISS - Pass Details

Date: 15 November 2017
Orbit: 402 x 407 km, 51.6° (Epoch: 22 November)

Event Time Altitude Azimuth Distance (km) Brightness Sun altitude
Exits shadow 04:55:20 26° 110° (ESE) 832 -1.7 -25.6°
Drops below altitude 10° 04:56:54 10° 111° (ESE) 1,453 -0.1 -25.4°
Sets 04:58:58 0° 112° (ESE) 2,310 1.1 -25.0°
